Location: Alfords
(31.4624°N, 83.9238°W)
Time: 18:51:46
(UTC+00:00)

N. Korean satellite - Pass Details

Date: 18 September 2021
Orbit: 450 x 495 km, 97.3° (Epoch: 15 October)

Event Time Altitude Azimuth Distance (km) Brightness Sun altitude
Rises 09:59:34 0° 32° (NNE) 2,506 10.9 -18.2°
Reaches altitude 10° 10:02:08 10° 52° (NE) 1,635 10.2 -17.6°
Maximum altitude 10:04:33 17° 96° (E) 1,249 9.6 -17.1°
Drops below altitude 10° 10:06:59 10° 139° (SE) 1,646 9.6 -16.6°
Sets 10:09:34 0° 160° (SSE) 2,530 10.3 -16.1°
